Regional Weather Roundup
Issued by NWS

Home | Current Version | Previous Version | Text Only | Print | Product List | Glossary Off
Versions: 1 2 3 4 5 6 7 8 9 10 11 12 13 14 15 16 17 18 19 20 21 22 23 24 25 26 27 28 29 30 31 32 33 34 35 36 37 38 39 40 41 42 43 44 45 46 47 48 49 50

000
ASUS43 KBIS 050002
RWRND

NORTH DAKOTA REGIONAL WEATHER ROUNDUP
NATIONAL WEATHER SERVICE BISMARCK ND
700 PM CDT WED MAY 04 2016

NOTE: "FAIR" INDICATES FEW OR NO CLOUDS BELOW 12,000 FEET WITH NO
SIGNIFICANT WEATHER AND/OR OBSTRUCTIONS TO VISIBILITY.


NDZ001>003-009>011-017-050100-
NORTHWEST NORTH DAKOTA

CITY           SKY/WX    TMP DP  RH WIND       PRES   REMARKS
WILLISTON      SUNNY     84  36  18 SW13G22   29.88F
6HR MIN TEMP:  80; 6HR MAX TEMP:  85;

MINOT          SUNNY     86  35  16 SW10      29.88F
MINOT AFB      SUNNY     83  39  20 SW10      29.86F
$$

NDZ018>021-031>035-040>046-050100-
SOUTHWEST NORTH DAKOTA

CITY           SKY/WX    TMP DP  RH WIND       PRES   REMARKS
BISMARCK       SUNNY     78  46  32 S9        29.95F
6HR MIN TEMP:  72; 6HR MAX TEMP:  80;

DICKINSON      MOSUNNY   78  37  22 S14       29.94F
GARRISON         N/A     81  39  22 S8        29.91F
6HR MIN TEMP:  75; 6HR MAX TEMP:  83;

HETTINGER ARPT SUNNY     76  41  28 S10       30.00F
$$

NDZ004>008-012>016-024-026-027-054-050100-
NORTHEAST NORTH DAKOTA

CITY           SKY/WX    TMP DP  RH WIND       PRES   REMARKS
GRAND FORKS    MOSUNNY   70  29  21 E5        29.95F
GRND FRKS AFB  MOSUNNY   70  28  21 SE2       29.96F
DEVILS LAKE    CLOUDY    71  41  33 SE7       29.94F
$$

NDZ022-023-025-028>030-036>039-047>053-050100-
SOUTHEAST NORTH DAKOTA

CITY           SKY/WX    TMP DP  RH WIND       PRES   REMARKS
FARGO          SUNNY     70  24  17 N5        29.97F
6HR MIN TEMP:  64; 6HR MAX TEMP:  72;

JAMESTOWN      SUNNY     73  36  25 W5        29.97F
$$





USA.gov is the U.S. government's official web portal to all federal, state and local government web resources and services.